Miami, FL

7:58 AM EST on December 09, 2016 (GMT -0500)
Miami International

Weather History for KMIA - February, 2014

Change the Weather History Date:

Tuesday, February 11, 2014

  Actual Average Record
Temperature  
Mean Temperature 77 °F 70 °F  
Max Temperature 84 °F 78 °F 87 °F (1942)
Min Temperature 69 °F 62 °F 40 °F (1947)
Degree Days  
Heating Degree Days 0 1  
Month to date heating degree days 0 11  
Since 1 July heating degree days 57 101  
Cooling Degree Days 12 6  
Month to date cooling degree days 131 60  
Year to date cooling degree days 283 211  
Growing Degree Days 26 (Base 50)    
Moisture  
Dew Point 66 °F    
Average Humidity 71    
Maximum Humidity 90    
Minimum Humidity 51    
Precipitation  
Precipitation 0.00 in 0.08 in 0.82 in (1981)
Month to date precipitation 0.01 0.86  
Year to date precipitation 1.92 2.48  
Snow  
Snow 0.00 in - - ()
Month to date snowfall 0.0  
Since 1 July snowfall 0.0  
Snow Depth 0.00 in    
Sea Level Pressure  
Sea Level Pressure 30.04 in    
Wind  
Wind Speed 5 mph (SSE)    
Max Wind Speed 15 mph    
Max Gust Speed 22 mph    
Visibility 10 miles    
Events      
T = Trace of Precipitation, MM = Missing Value Source: NWS Daily Summary

Daily Weather History Graph

Daily Weather History Graph

Search for Another Location

Airport or City:

Trip Planner

Search our weather history database for the weather conditions in past years. The results will help you decide how hot, cold, wet, or windy it might be!

Date:

Astronomy

Feb. 11, 2014 Rise Set
Actual Time 6:59 AM EST 6:12 PM EST
Civil Twilight 6:35 AM EST 6:35 PM EST
Nautical Twilight 6:08 AM EST 7:02 PM EST
Astronomical Twilight 5:41 AM EST 7:29 PM EST
Moon 3:38 PM EST (2/11) 4:27 AM EST (2/11)
Length of Visible Light 12h 00m
Length of Day
11h 12m
Waxing Gibbous, 90% of the Moon is Illuminated
Feb 11
Waxing Gibbous
Feb 14
Full
Feb 22
Last Quarter
Mar 1
New
Mar 8
First Quarter

Hourly Weather History & Observations

Time (EST) Temp. Heat Index Dew Point Humidity Pressure Visibility Wind Dir Wind Speed Gust Speed Precip Events Conditions
12:53 AM 72.0 °F - 66.0 °F 81% 30.03 in 10.0 mi East 6.9 mph - N/A   Scattered Clouds
1:53 AM 71.1 °F - 66.0 °F 84% 30.03 in 10.0 mi Calm Calm - N/A   Scattered Clouds
2:53 AM 70.0 °F - 66.0 °F 87% 30.01 in 10.0 mi Calm Calm - N/A   Partly Cloudy
3:53 AM 72.0 °F - 66.9 °F 84% 30.01 in 10.0 mi Calm Calm - N/A   Mostly Cloudy
4:53 AM 71.1 °F - 66.9 °F 87% 30.02 in 10.0 mi Calm Calm - N/A   Mostly Cloudy
5:53 AM 71.1 °F - 66.9 °F 87% 30.04 in 10.0 mi Calm Calm - N/A   Clear
6:53 AM 70.0 °F - 66.9 °F 90% 30.05 in 10.0 mi Calm Calm - N/A   Partly Cloudy
7:53 AM 73.9 °F - 69.1 °F 85% 30.06 in 10.0 mi Calm Calm - N/A   Partly Cloudy
8:53 AM 75.9 °F - 68.0 °F 76% 30.07 in 10.0 mi Calm Calm - N/A   Partly Cloudy
9:53 AM 78.1 °F - 68.0 °F 71% 30.08 in 10.0 mi South 5.8 mph - N/A   Scattered Clouds
10:53 AM 81.0 °F 83.0 °F 66.0 °F 60% 30.08 in 10.0 mi SSE 9.2 mph - N/A   Mostly Cloudy
11:53 AM 81.0 °F 82.7 °F 64.9 °F 58% 30.07 in 10.0 mi SSE 6.9 mph 17.3 mph N/A   Scattered Clouds
12:53 PM 82.0 °F 83.1 °F 63.0 °F 52% 30.05 in 10.0 mi South 11.5 mph 17.3 mph N/A   Scattered Clouds
1:53 PM 82.0 °F 83.4 °F 64.0 °F 54% 30.03 in 10.0 mi South 10.4 mph - N/A   Scattered Clouds
2:53 PM 82.9 °F 84.6 °F 64.9 °F 54% 30.01 in 10.0 mi SSE 8.1 mph - N/A   Scattered Clouds
3:53 PM 80.1 °F 82.1 °F 66.0 °F 62% 30.01 in 10.0 mi SE 10.4 mph 19.6 mph N/A   Partly Cloudy
4:53 PM 80.1 °F 82.1 °F 66.0 °F 62% 30.01 in 10.0 mi ESE 12.7 mph - N/A   Partly Cloudy
5:53 PM 78.1 °F - 66.0 °F 66% 30.01 in 10.0 mi SSE 9.2 mph - N/A   Partly Cloudy
6:53 PM 77.0 °F - 66.9 °F 71% 30.02 in 10.0 mi Variable 6.9 mph - N/A   Partly Cloudy
7:53 PM 75.9 °F - 68.0 °F 76% 30.04 in 10.0 mi SSW 5.8 mph - N/A   Partly Cloudy
8:53 PM 75.9 °F - 66.9 °F 74% 30.05 in 10.0 mi SSW 3.5 mph - N/A   Partly Cloudy
9:53 PM 73.9 °F - 66.9 °F 79% 30.06 in 10.0 mi Calm Calm - N/A   Partly Cloudy
10:53 PM 73.0 °F - 66.0 °F 79% 30.06 in 10.0 mi Calm Calm - N/A   Partly Cloudy
11:53 PM 73.0 °F - 66.0 °F 79% 30.05 in 10.0 mi Calm Calm - N/A   Partly Cloudy